Theta_e
342 347 353 354 353 353 353 353 352 351 350 350 350 350 350 350 350 350 350 353 353 350 353 353 354 354 355 354 355 356 357 357 357 358 358 357 357 356 356 356 355 352 356
345 349 354 354 353 352 352 351 351 350 350 350 349 349 349 349 349 349 350 352 354 351 352 352 355 357 356 356 355 356 356 357 355 358 357 357 354 356 355 355 354 353 356
345 346 348 353 352 351 352 351 351 351 350 349 348 348 347 347 347 347 348 349 351 353 351 353 355 355 354 354 354 355 354 354 355 356 356 350 349 353 354 354 356 355 354
346 346 347 351 351 351 350 350 350 350 350 349 348 347 346 346 345 345 346 346 348 351 351 350 352 352 352 353 352 351 352 352 354 354 349 349 347 352 352 351 353 352 352
343 345 346 350 350 349 349 349 348 348 348 347 346 345 345 344 344 344 343 343 343 345 347 350 349 349 349 349 348 349 349 349 347 345 342 345 348 349 351 350 350 350 349
340 343 345 348 347 346 346 345 345 344 344 344 344 344 341 342 343 343 342 342 342 341 341 342 344 345 346 346 346 346 345 344 345 337 340 344 345 349 349 349 349 349 349
335 335 338 344 343 342 340 339 338 338 337 337 336 337 338 342 342 342 343 343 343 343 343 342 340 340 341 341 340 341 342 344 339 329 336 343 344 350 349 348 347 347 346
333 332 329 339 340 339 338 337 337 337 336 335 336 337 337 337 337 338 341 342 341 341 342 343 343 343 341 339 339 340 340 340 338 331 333 342 344 350 349 348 346 345 344
325 321 320 320 326 333 335 334 335 335 336 337 334 333 332 334 335 337 338 339 340 340 340 340 341 341 342 341 340 340 341 341 334 330 334 340 347 350 348 347 346 345 344
316 317 315 316 317 318 318 332 331 331 330 331 331 330 331 329 329 332 332 333 335 334 335 338 339 339 339 340 339 340 341 342 330 326 330 337 347 350 349 346 345 344 343
318 316 317 317 317 318 318 322 322 326 327 327 324 327 318 318 319 319 326 328 328 330 331 332 334 336 338 338 338 336 337 331 330 327 327 335 345 349 347 346 345 344 342
316 316 317 318 317 316 320 315 314 315 314 316 315 314 314 312 317 317 318 322 322 324 325 326 329 329 328 331 332 332 330 329 327 327 327 335 342 346 346 345 344 343 342
317 318 316 315 314 313 313 314 314 313 312 314 313 311 311 311 311 310 310 312 313 318 316 317 320 320 320 325 326 325 328 330 329 329 330 336 340 344 345 345 344 343 342
318 317 314 311 310 310 311 310 311 312 311 311 311 310 308 308 308 308 308 309 310 310 312 313 316 319 319 319 322 324 325 326 329 331 332 338 340 344 344 344 344 343 343
316 315 312 311 309 309 309 309 309 310 310 310 310 309 308 308 307 308 308 308 308 308 309 309 313 316 317 318 317 318 320 325 328 329 329 336 339 339 339 341 342 342 342
315 314 312 310 310 310 308 307 308 309 310 309 309 309 310 308 307 307 307 308 308 308 309 309 311 313 315 316 317 318 317 320 321 326 330 327 333 333 334 335 339 339 341
316 316 312 310 310 309 308 307 307 309 309 309 308 309 310 309 309 308 307 308 309 309 309 310 311 312 314 314 315 317 318 318 317 319 325 328 330 331 331 329 332 334 339
316 312 311 312 310 309 308 308 308 308 308 308 308 307 309 310 311 310 309 309 309 309 309 309 309 310 310 311 312 314 315 315 317 318 322 326 327 327 332 334 333 334 336
313 312 309 309 309 309 308 308 308 308 308 309 308 307 309 310 313 310 309 309 310 309 309 309 309 309 308 309 310 313 314 314 316 318 319 321 324 327 328 330 332 332 332
313 314 310 309 308 308 307 308 309 309 309 308 308 307 309 310 312 311 310 310 310 309 309 309 308 309 308 309 309 310 311 312 313 314 316 317 319 322 326 326 328 329 331
315 313 311 308 308 307 306 306 307 306 307 307 308 309 309 310 311 311 310 310 310 309 309 309 308 308 308 308 308 307 309 311 311 312 313 315 314 318 322 325 325 326 328
315 314 311 309 308 307 306 306 307 306 306 306 306 309 310 310 311 311 311 310 309 308 308 308 307 306 306 308 307 305 303 307 308 310 311 312 313 318 320 323 324 325 326
315 312 310 308 308 308 307 307 307 307 306 306 307 308 309 309 310 310 310 310 309 308 307 307 307 306 305 308 308 307 302 301 304 309 311 314 314 315 319 322 323 325 325
315 313 310 309 308 308 308 306 305 304 303 305 305 306 307 309 309 311 311 309 309 309 309 308 310 309 307 304 308 308 308 306 304 303 309 312 314 315 316 320 322 324 324
316 311 310 310 307 308 307 306 305 305 305 306 305 305 306 307 309 310 310 309 309 309 310 310 309 308 307 307 307 308 308 307 307 305 303 307 313 315 316 317 319 321 323
311 310 310 309 307 306 306 306 305 305 305 305 306 305 306 306 308 309 309 309 309 309 311 312 312 312 312 308 308 308 308 307 307 305 303 305 309 313 317 317 318 319 320
Wind_Speed
3 5 10 12 13 14 14 14 13 12 12 13 13 12 11 12 11 11 10 8 6 6 6 6 7 8 8 10 11 11 11 10 10 13 13 13 12 13 14 14 13 12 14
3 6 11 12 14 15 14 14 13 12 13 13 12 12 12 11 12 12 11 10 9 6 5 5 6 7 8 9 9 9 9 7 7 12 12 13 13 12 13 12 11 12 12
6 5 6 14 15 14 13 12 12 12 12 12 12 12 12 12 12 11 11 11 10 7 4 6 6 7 7 7 8 8 8 7 7 12 10 6 8 12 12 12 13 13 12
6 5 6 13 14 14 13 13 14 14 13 12 12 12 12 12 12 12 13 12 12 12 8 5 8 6 6 7 6 6 7 6 7 9 4 5 7 10 11 11 12 13 13
7 6 9 15 16 15 14 14 14 14 13 13 13 12 11 10 10 10 11 11 12 11 12 13 8 6 4 4 4 3 3 4 6 5 4 3 3 9 11 11 11 11 11
8 7 13 17 16 16 16 15 14 13 12 12 11 11 11 9 9 9 9 9 9 9 9 9 9 8 6 5 3 3 2 2 3 3 4 4 3 8 11 12 12 13 12
8 8 8 15 15 16 15 15 15 14 13 13 12 10 12 13 12 12 10 10 10 10 10 9 8 8 7 7 6 5 5 5 3 4 6 6 5 7 10 10 11 13 13
8 7 8 14 16 17 16 16 14 13 12 13 12 11 12 13 14 14 14 13 12 13 12 11 11 9 7 7 7 7 7 7 4 3 7 7 10 10 12 12 11 12 13
7 7 6 7 10 16 18 17 13 13 11 11 12 11 11 12 14 16 17 16 15 15 14 13 12 10 9 5 6 8 9 9 3 4 5 6 14 15 14 13 13 13 13
8 7 7 8 8 7 7 16 16 15 15 13 11 11 12 13 14 14 14 15 16 15 15 14 14 11 10 7 5 6 9 10 4 4 5 5 14 17 15 14 14 13 13
8 8 7 6 7 6 7 9 12 14 13 12 10 11 8 4 5 9 12 14 14 15 16 16 16 14 11 8 4 3 5 3 6 3 3 9 15 16 16 15 15 14 13
5 5 5 6 6 5 4 5 5 5 4 5 5 6 4 5 5 7 10 13 13 12 13 15 15 15 12 4 2 2 2 4 4 5 3 12 16 16 16 15 15 15 15
5 5 5 6 5 6 5 3 2 2 3 3 6 5 5 4 4 4 3 4 4 10 5 7 7 5 6 3 1 2 4 4 3 4 5 12 17 18 17 15 15 15 16
7 5 4 5 6 6 3 3 3 2 2 3 4 5 3 3 4 4 3 4 4 3 5 5 4 6 6 5 3 3 3 3 2 2 4 8 15 18 16 16 16 16 16
7 4 5 6 6 4 6 4 3 3 3 2 3 3 3 3 3 3 4 3 4 4 4 5 5 5 5 6 4 3 5 3 2 1 3 8 6 9 12 14 15 16 17
5 4 2 5 5 5 4 5 4 3 2 3 2 3 4 2 2 2 3 4 4 3 4 4 5 6 5 5 5 4 5 2 3 2 2 4 6 5 6 6 9 15 17
5 5 2 4 3 4 4 5 3 3 3 2 3 4 4 3 3 3 3 4 4 4 5 5 5 5 5 5 6 5 4 5 4 3 2 3 4 9 7 7 6 12 16
5 4 4 3 3 2 3 2 3 2 3 2 2 3 4 5 4 3 3 3 4 4 4 4 4 5 4 4 5 6 5 5 4 5 3 3 3 4 11 14 12 13 18
4 4 2 2 0 2 3 3 3 3 2 1 2 3 5 4 3 2 3 3 4 3 3 3 3 3 4 5 6 5 5 6 6 5 6 5 5 6 5 12 14 16 17
4 3 3 3 2 6 4 3 2 3 3 2 2 3 5 3 4 3 3 4 4 4 4 3 3 3 4 5 6 7 6 7 7 6 6 6 6 7 7 7 5 4 13
4 4 4 2 3 4 3 3 3 3 3 2 3 4 5 4 4 4 3 4 4 4 5 5 3 3 3 2 3 3 4 7 7 7 6 6 6 7 7 7 4 4 5
4 5 6 1 2 3 1 1 2 2 3 3 3 5 4 5 5 5 4 4 5 5 5 4 2 2 2 2 2 1 3 3 2 4 4 6 9 5 7 8 7 9 7
8 6 4 2 2 1 1 2 2 1 2 3 3 3 3 5 5 5 5 4 5 3 4 4 3 3 2 2 4 3 2 2 3 1 1 1 4 5 6 7 7 7 7
8 5 3 4 3 2 3 2 1 2 2 2 3 3 5 5 5 4 4 4 4 3 4 4 4 3 3 5 2 4 6 2 2 3 1 2 4 2 4 4 6 6 5
6 5 5 4 3 3 3 3 3 4 3 3 3 5 5 5 5 5 4 5 5 4 4 4 5 3 3 4 4 2 3 4 6 5 4 3 2 3 1 3 4 4 5
3 4 5 4 3 4 4 4 5 6 6 4 4 4 4 3 4 4 4 4 4 4 5 5 5 5 4 4 5 5 6 4 2 3 4 4 2 2 3 2 3 3 3
Wind_Direction
3 87 101 83 76 76 75 77 76 72 72 73 68 60 57 55 57 54 49 43 60 84 91 89 94 96 94 97 101 103 104 110 121 120 117 113 107 107 105 106 107 110 108
71 62 77 76 68 66 66 68 71 70 65 62 61 61 56 51 48 45 40 33 52 75 93 97 101 101 100 97 100 108 110 116 126 131 123 123 119 112 118 118 116 111 114
45 59 73 79 74 69 69 71 73 72 69 64 57 51 49 43 41 35 34 33 27 51 82 85 59 89 105 107 111 111 116 106 98 117 119 110 126 128 128 129 122 113 110
66 56 61 81 82 76 68 65 62 60 61 62 59 51 44 36 30 27 24 24 26 18 26 63 68 66 85 99 104 114 123 125 129 125 120 134 142 135 132 134 122 123 124
55 54 60 68 67 65 62 56 51 48 46 46 43 41 37 33 30 22 21 19 17 22 13 20 32 37 58 78 90 117 132 137 132 138 141 148 144 157 149 145 139 134 131
51 49 58 58 56 57 55 52 50 47 44 41 38 31 25 8 20 14 10 10 8 11 13 15 14 22 27 28 14 341 256 233 209 184 181 186 154 168 160 151 151 146 141
53 37 57 66 63 61 58 54 48 44 42 39 34 32 22 35 19 2 354 355 356 353 350 352 357 2 9 9 1 342 317 284 226 233 213 184 179 191 171 168 162 152 147
70 49 43 52 53 48 43 39 40 36 31 31 23 39 38 41 26 17 10 3 356 352 346 343 339 336 347 357 350 342 328 309 297 262 224 197 183 185 180 174 172 166 158
60 60 49 43 47 48 51 43 43 32 26 28 32 42 35 39 34 30 27 20 10 1 348 341 337 332 322 335 343 332 322 312 333 292 233 203 193 188 189 185 183 180 171
47 43 43 39 38 43 31 45 47 44 36 40 53 57 53 43 37 28 31 20 17 8 3 356 340 330 326 320 331 331 305 308 320 304 248 212 208 191 195 193 192 188 183
53 43 42 44 42 32 33 24 25 26 29 49 45 52 47 37 37 27 22 22 10 2 359 358 357 349 342 13 31 338 322 295 294 267 257 228 222 205 203 197 198 195 192
73 56 49 51 45 42 49 26 13 14 18 43 50 46 39 33 25 31 17 12 6 357 353 349 351 351 353 359 35 351 306 296 282 278 252 230 222 218 214 206 203 200 197
106 72 42 44 38 31 14 2 17 10 25 38 47 41 38 27 17 11 4 359 346 350 344 343 338 342 331 346 11 267 269 291 305 286 280 237 224 220 220 214 213 207 204
92 84 58 47 40 29 19 17 3 7 51 69 46 37 31 24 24 5 356 348 344 345 334 340 330 321 322 318 356 297 264 244 272 300 296 284 222 217 223 220 217 215 212
103 104 49 41 46 40 35 13 18 24 80 94 55 31 37 31 8 356 340 339 335 334 336 329 322 314 310 317 327 328 299 262 253 282 295 323 217 221 229 237 242 229 219
119 123 89 61 57 36 36 24 22 51 37 41 22 4 18 18 4 336 332 328 325 330 317 317 310 310 308 308 306 308 294 301 302 291 244 280 290 262 259 272 268 262 243
192 150 107 77 61 43 28 14 13 14 4 352 3 342 338 353 350 355 314 323 322 325 319 325 317 314 309 312 301 290 274 279 282 279 299 214 252 256 239 227 268 294 281
186 128 65 40 59 46 41 358 5 355 343 327 322 331 340 335 348 328 316 323 317 319 330 326 313 305 309 307 301 295 298 282 268 252 223 237 243 219 238 231 224 236 244
153 120 121 295 196 45 31 9 347 334 353 326 320 341 329 320 313 303 317 314 323 327 320 310 300 277 293 299 291 282 281 280 273 266 252 228 234 236 227 241 225 219 229
131 163 190 247 338 24 17 357 338 340 342 359 312 293 306 313 324 335 330 327 330 328 322 325 300 290 252 263 273 278 273 260 254 250 253 264 244 237 233 243 239 252 244
197 195 239 278 3 38 15 359 343 328 323 302 298 312 321 324 324 335 330 323 323 319 303 307 294 294 295 242 296 291 266 257 260 246 238 241 237 236 228 232 225 218 241
250 225 238 253 316 41 32 268 238 280 290 281 299 318 341 339 322 319 321 309 308 310 316 311 282 284 266 280 272 269 312 323 312 273 253 262 259 243 231 227 220 216 214
232 225 228 233 322 305 312 323 331 324 304 313 321 314 330 323 321 315 297 293 297 296 304 314 299 251 278 283 224 241 279 267 316 335 42 321 277 235 226 222 232 225 206
240 208 178 221 256 311 358 336 284 245 274 264 280 289 309 315 309 310 312 314 304 311 319 314 311 266 234 271 302 230 251 230 280 314 321 6 1 329 241 215 211 213 201
224 188 194 214 263 299 313 275 277 280 250 283 302 311 307 305 309 315 323 314 324 328 309 299 294 276 233 257 252 274 247 232 224 235 276 325 357 15 244 200 195 177 190
145 136 178 218 272 291 290 298 283 279 286 295 301 305 305 297 321 315 322 333 319 322 316 308 303 289 282 259 259 245 236 231 203 188 229 242 271 360 51 122 131 142 177